TimeAST,TemperatureF,Dew PointF,Humidity,Sea Level PressureIn,VisibilityMPH,Wind Direction,Wind SpeedMPH,Gust SpeedMPH,PrecipitationIn,Events,Conditions,WindDirDegrees,DateUTC
12:53 AM,82.0,75.0,79,30.01,10.0,East,4.6,-,0.01,,Clear,80,2013-09-11 04:53:00
1:53 AM,82.0,75.0,79,29.99,10.0,ENE,4.6,-,0.01,,Partly Cloudy,60,2013-09-11 05:53:00
2:53 AM,80.1,75.0,85,29.98,10.0,ENE,3.5,-,N/A,,Scattered Clouds,60,2013-09-11 06:53:00
3:53 AM,79.0,75.0,88,29.98,10.0,Calm,Calm,-,0.01,,Partly Cloudy,0,2013-09-11 07:53:00
4:53 AM,81.0,75.0,82,29.99,10.0,ENE,4.6,-,N/A,,Partly Cloudy,70,2013-09-11 08:53:00
5:53 AM,82.0,73.9,76,30.00,10.0,ENE,6.9,-,0.01,,Partly Cloudy,60,2013-09-11 09:53:00
6:53 AM,82.0,75.0,79,30.01,10.0,ENE,8.1,-,N/A,,Scattered Clouds,60,2013-09-11 10:53:00
7:34 AM,80.6,75.2,84,30.02,10.0,SE,13.8,-,0.01,,Mostly Cloudy,130,2013-09-11 11:34:00
7:41 AM,80.6,75.2,84,30.02,10.0,SE,13.8,-,0.01,,Overcast,130,2013-09-11 11:41:00
7:53 AM,80.1,75.0,85,30.03,10.0,ESE,10.4,-,0.01,,Overcast,120,2013-09-11 11:53:00
8:53 AM,82.9,75.0,77,30.03,10.0,Calm,Calm,-,N/A,,Overcast,0,2013-09-11 12:53:00
9:53 AM,84.0,75.0,74,30.03,10.0,East,5.8,-,0.01,,Mostly Cloudy,100,2013-09-11 13:53:00
10:53 AM,84.9,75.0,72,30.04,10.0,East,5.8,-,0.01,,Overcast,80,2013-09-11 14:53:00
11:53 AM,87.1,77.0,72,30.02,10.0,NE,10.4,-,N/A,,Mostly Cloudy,40,2013-09-11 15:53:00
12:53 PM,88.0,78.1,72,30.00,10.0,NE,11.5,-,0.01,,Clear,40,2013-09-11 16:53:00
1:53 PM,86.0,77.0,74,29.98,10.0,NE,10.4,-,0.01,,Partly Cloudy,50,2013-09-11 17:53:00
2:53 PM,87.1,77.0,72,29.97,10.0,NE,9.2,-,N/A,,Clear,40,2013-09-11 18:53:00
3:53 PM,82.9,75.9,79,29.97,5.0,ENE,6.9,-,0.01,Rain,Rain,60,2013-09-11 19:53:00
4:53 PM,84.9,77.0,77,29.95,10.0,NNE,4.6,-,0.01,,Clear,30,2013-09-11 20:53:00
5:53 PM,82.9,75.9,79,29.95,10.0,NE,8.1,-,N/A,,Mostly Cloudy,40,2013-09-11 21:53:00
6:53 PM,82.0,75.9,82,29.95,10.0,NNE,8.1,-,0.01,,Partly Cloudy,30,2013-09-11 22:53:00
7:53 PM,81.0,75.9,85,29.96,10.0,North,4.6,-,N/A,,Scattered Clouds,360,2013-09-11 23:53:00
8:06 PM,80.6,77.0,89,29.96,10.0,NNE,5.8,-,N/A,,Mostly Cloudy,20,2013-09-12 00:06:00
8:17 PM,82.4,75.2,79,29.96,10.0,NE,10.4,-,N/A,,Scattered Clouds,40,2013-09-12 00:17:00
8:53 PM,82.9,77.0,82,29.97,10.0,NE,9.2,-,0.01,,Mostly Cloudy,40,2013-09-12 00:53:00
9:03 PM,82.4,77.0,84,29.97,10.0,NE,9.2,17.3,N/A,,Mostly Cloudy,50,2013-09-12 01:03:00
9:46 PM,82.4,77.0,84,29.98,10.0,NE,13.8,23.0,N/A,,Mostly Cloudy,50,2013-09-12 01:46:00
9:53 PM,81.0,77.0,88,29.98,10.0,ENE,12.7,21.9,N/A,,Overcast,60,2013-09-12 01:53:00
10:11 PM,80.6,75.2,84,29.98,10.0,ENE,12.7,-,N/A,,Overcast,70,2013-09-12 02:11:00
10:53 PM,79.0,77.0,94,29.97,10.0,Calm,Calm,-,0.01,,Overcast,0,2013-09-12 02:53:00
11:53 PM,81.0,75.9,85,29.95,10.0,NNE,10.4,-,N/A,,Partly Cloudy,30,2013-09-12 03:53:00